NOZ4RM EDDB-ENBR

Flight info

Callsign NOZ4RM
Flight time 1h 37m
Altitude 36000
Route SUKIP4B/06L SUKIP M748 BUMIL DCT DOSUR DCT ELGIK DCT BADAB
Aircraft B738/M-SDE2E3FGHIRWXY/LB1

Departure

Time 2026-05-06 16:31
Airport Berlin Brandenburg Airport (EDDB)

Arrival

Time 2026-05-06 18:09
Airport Bergen Airport, Flesland (ENBR)
Time Latitude Longitude Altitude Speed Heading
2026-05-06 16:04 52.36787 13.50742 166 ft 0 kts 158°
2026-05-06 16:21 52.36794 13.50737 165 ft 2 kts 158°
2026-05-06 16:21 52.36808 13.50728 165 ft 2 kts 159°
2026-05-06 16:21 52.36822 13.50719 165 ft 2 kts 158°
2026-05-06 16:22 52.36837 13.50711 165 ft 2 kts 159°
2026-05-06 16:22 52.36851 13.50706 165 ft 2 kts 194°
2026-05-06 16:22 52.36865 13.50718 165 ft 2 kts 229°
2026-05-06 16:22 52.36869 13.50729 165 ft 1 kts 249°
2026-05-06 16:23 52.36871 13.50739 165 ft 0 kts 249°
2026-05-06 16:25 52.36871 13.50738 165 ft 0 kts 249°
2026-05-06 16:25 52.36865 13.50714 165 ft 6 kts 248°
2026-05-06 16:25 52.36839 13.50609 165 ft 10 kts 248°
2026-05-06 16:25 52.36817 13.50509 165 ft 8 kts 250°
2026-05-06 16:26 52.36795 13.50422 165 ft 7 kts 246°
2026-05-06 16:26 52.36778 13.50349 165 ft 6 kts 249°
2026-05-06 16:26 52.36762 13.50281 165 ft 8 kts 252°
2026-05-06 16:26 52.36778 13.50196 165 ft 10 kts 322°
2026-05-06 16:27 52.36846 13.50146 165 ft 10 kts 338°
2026-05-06 16:27 52.36894 13.50075 165 ft 9 kts 280°
2026-05-06 16:27 52.36882 13.49980 165 ft 8 kts 249°
2026-05-06 16:27 52.36858 13.49871 165 ft 14 kts 249°
2026-05-06 16:28 52.36823 13.49724 165 ft 13 kts 248°
2026-05-06 16:28 52.36790 13.49587 165 ft 12 kts 249°
2026-05-06 16:28 52.36760 13.49462 165 ft 11 kts 248°
2026-05-06 16:28 52.36733 13.49351 165 ft 10 kts 248°
2026-05-06 16:29 52.36702 13.49222 165 ft 16 kts 249°
2026-05-06 16:29 52.36653 13.49006 165 ft 21 kts 249°
2026-05-06 16:29 52.36600 13.48786 165 ft 20 kts 248°
2026-05-06 16:29 52.36550 13.48577 165 ft 19 kts 248°
2026-05-06 16:30 52.36525 13.48384 165 ft 15 kts 307°
2026-05-06 16:30 52.36587 13.48328 165 ft 14 kts 340°
2026-05-06 16:30 52.36709 13.48267 165 ft 8 kts
2026-05-06 16:30 52.36733 13.48344 165 ft 7 kts 69°
2026-05-06 16:31 52.36785 13.48565 165 ft 53 kts 67°
2026-05-06 16:31 52.37016 13.49532 166 ft 125 kts 68°
2026-05-06 16:31 52.37385 13.51130 410 ft 161 kts 68°
2026-05-06 16:31 52.37762 13.52751 1281 ft 156 kts 66°
2026-05-06 16:32 52.38156 13.54450 1843 ft 170 kts 65°
2026-05-06 16:32 52.38622 13.56325 2372 ft 188 kts 64°
2026-05-06 16:32 52.39127 13.58322 2955 ft 200 kts 66°
2026-05-06 16:32 52.39637 13.60556 3416 ft 220 kts 67°
2026-05-06 16:33 52.40192 13.63016 3970 ft 238 kts 67°
2026-05-06 16:33 52.40794 13.65639 4498 ft 257 kts 68°
2026-05-06 16:33 52.41440 13.68435 5093 ft 272 kts 68°
2026-05-06 16:34 52.42803 13.74358 6676 ft 285 kts 68°
2026-05-06 16:34 52.43507 13.77397 7405 ft 293 kts 69°
2026-05-06 16:34 52.44400 13.80396 8179 ft 296 kts 52°
2026-05-06 16:34 52.45920 13.82671 8946 ft 297 kts 28°
2026-05-06 16:35 52.47826 13.83947 9659 ft 299 kts 10°
2026-05-06 16:35 52.49899 13.84442 10248 ft 306 kts 358°
2026-05-06 16:35 52.52014 13.84015 10645 ft 314 kts 336°
2026-05-06 16:35 52.53874 13.82198 11227 ft 315 kts 314°
2026-05-06 16:36 52.55268 13.79467 11957 ft 314 kts 300°
2026-05-06 16:36 52.56235 13.76229 12682 ft 313 kts 283°
2026-05-06 16:36 52.56390 13.72732 13372 ft 312 kts 261°
2026-05-06 16:36 52.55943 13.69282 14056 ft 316 kts 255°
2026-05-06 16:37 52.55680 13.65661 14731 ft 322 kts 272°
2026-05-06 16:37 52.56292 13.62122 15460 ft 329 kts 292°
2026-05-06 16:37 52.57425 13.58841 16145 ft 334 kts 296°
2026-05-06 16:37 52.58391 13.55391 16758 ft 333 kts 283°
2026-05-06 16:38 52.58593 13.51656 17402 ft 329 kts 262°
2026-05-06 16:38 52.58001 13.48026 18033 ft 330 kts 246°
2026-05-06 16:38 52.56991 13.44660 18656 ft 332 kts 242°
2026-05-06 16:38 52.55917 13.41330 19273 ft 334 kts 242°
2026-05-06 16:39 52.54823 13.37918 19878 ft 338 kts 242°
2026-05-06 16:39 52.53742 13.34508 20460 ft 341 kts 241°
2026-05-06 16:39 52.52642 13.31021 21032 ft 344 kts 242°
2026-05-06 16:39 52.51540 13.27519 21606 ft 347 kts 241°
2026-05-06 16:40 52.50432 13.23999 22172 ft 349 kts 241°
2026-05-06 16:40 52.49318 13.20461 22716 ft 352 kts 241°
2026-05-06 16:40 52.48193 13.16898 23212 ft 355 kts 241°
2026-05-06 16:40 52.47049 13.13276 23708 ft 359 kts 241°
2026-05-06 16:41 52.45899 13.09638 24213 ft 361 kts 241°
2026-05-06 16:41 52.44759 13.06037 24778 ft 362 kts 241°
2026-05-06 16:41 52.43579 13.02315 25215 ft 366 kts 241°
2026-05-06 16:41 52.42403 12.98611 25771 ft 366 kts 241°
2026-05-06 16:42 52.41229 12.94923 26227 ft 369 kts 241°
2026-05-06 16:42 52.40049 12.91221 26669 ft 371 kts 240°
2026-05-06 16:42 52.38857 12.87490 27189 ft 371 kts 241°
2026-05-06 16:42 52.37638 12.83677 27627 ft 374 kts 240°
2026-05-06 16:43 52.36437 12.79926 28005 ft 377 kts 240°
2026-05-06 16:43 52.35212 12.76106 28471 ft 377 kts 240°
2026-05-06 16:43 52.33988 12.72294 28875 ft 380 kts 240°
2026-05-06 16:43 52.32813 12.68411 29255 ft 383 kts 244°
2026-05-06 16:44 52.31877 12.64296 29684 ft 386 kts 251°
2026-05-06 16:44 52.31288 12.60005 30044 ft 391 kts 258°
2026-05-06 16:44 52.31016 12.55552 30352 ft 398 kts 263°
2026-05-06 16:44 52.31022 12.51046 30742 ft 402 kts 269°
2026-05-06 16:45 52.31345 12.46437 30983 ft 410 kts 276°
2026-05-06 16:45 52.32008 12.41888 31272 ft 416 kts 282°
2026-05-06 16:45 52.32995 12.37479 31574 ft 422 kts 289°
2026-05-06 16:45 52.34332 12.33133 31841 ft 429 kts 295°
2026-05-06 16:46 52.35971 12.29053 32161 ft 434 kts 301°
2026-05-06 16:46 52.37923 12.25206 32393 ft 441 kts 308°
2026-05-06 16:46 52.40128 12.21725 32663 ft 447 kts 314°
2026-05-06 16:46 52.42573 12.18498 32942 ft 452 kts 317°
2026-05-06 16:47 52.45077 12.15407 33173 ft 454 kts 318°
2026-05-06 16:47 52.47604 12.12277 33385 ft 455 kts 318°
2026-05-06 16:47 52.50102 12.09094 33615 ft 456 kts 317°
2026-05-06 16:47 52.52574 12.05844 33804 ft 457 kts 316°
2026-05-06 16:48 52.55046 12.02493 34006 ft 459 kts 316°
2026-05-06 16:48 52.57457 11.99147 34212 ft 459 kts 315°
2026-05-06 16:48 52.59917 11.95670 34509 ft 458 kts 315°
2026-05-06 16:48 52.62309 11.92247 34857 ft 456 kts 315°
2026-05-06 16:49 52.64709 11.88825 35117 ft 457 kts 316°
2026-05-06 16:49 52.67155 11.85563 35364 ft 458 kts 318°
2026-05-06 16:49 52.69693 11.82348 35653 ft 457 kts 319°
2026-05-06 16:49 52.72221 11.79210 35790 ft 459 kts 319°
2026-05-06 16:50 52.74788 11.76037 35801 ft 459 kts 319°
2026-05-06 16:50 52.79832 11.69764 35810 ft 455 kts 319°
2026-05-06 16:51 52.84897 11.63384 35814 ft 457 kts 319°
2026-05-06 16:51 52.89912 11.57005 35816 ft 456 kts 319°
2026-05-06 16:52 52.94923 11.50590 35819 ft 456 kts 319°
2026-05-06 16:52 52.99918 11.44172 35828 ft 456 kts 319°
2026-05-06 16:53 53.04924 11.37718 35835 ft 455 kts 319°
2026-05-06 16:53 53.09902 11.31301 35842 ft 455 kts 318°
2026-05-06 16:54 53.14949 11.24966 35844 ft 456 kts 321°
2026-05-06 16:54 53.20195 11.18946 35848 ft 458 kts 322°
2026-05-06 16:55 53.25441 11.13038 35858 ft 457 kts 322°
2026-05-06 16:55 53.30683 11.07084 35854 ft 458 kts 322°
2026-05-06 16:56 53.35939 11.01051 35858 ft 458 kts 322°
2026-05-06 16:56 53.41158 10.95014 35865 ft 456 kts 322°
2026-05-06 16:57 53.46349 10.88982 35858 ft 455 kts 322°
2026-05-06 16:57 53.51539 10.82928 35876 ft 456 kts 322°
2026-05-06 16:58 53.56724 10.76832 35872 ft 455 kts 322°
2026-05-06 16:58 53.61905 10.70736 35882 ft 456 kts 322°
2026-05-06 16:59 53.67112 10.64615 35886 ft 456 kts 322°
2026-05-06 16:59 53.72282 10.58518 35884 ft 456 kts 322°
2026-05-06 17:00 53.77474 10.52370 35876 ft 455 kts 322°
2026-05-06 17:00 53.82630 10.46244 35891 ft 455 kts 322°
2026-05-06 17:01 53.87781 10.40102 35889 ft 454 kts 322°
2026-05-06 17:01 53.92932 10.33942 35886 ft 454 kts 321°
2026-05-06 17:02 53.98053 10.27797 35904 ft 454 kts 322°
2026-05-06 17:02 54.03223 10.21574 35885 ft 453 kts 322°
2026-05-06 17:03 54.08356 10.15378 35891 ft 453 kts 321°
2026-05-06 17:03 54.13472 10.09183 35895 ft 452 kts 321°
2026-05-06 17:04 54.18563 10.02999 35898 ft 453 kts 321°
2026-05-06 17:04 54.23684 9.96759 35904 ft 452 kts 321°
2026-05-06 17:05 54.28791 9.90518 35914 ft 452 kts 321°
2026-05-06 17:05 54.33852 9.84315 35903 ft 452 kts 321°
2026-05-06 17:06 54.38977 9.78013 35904 ft 452 kts 321°
2026-05-06 17:06 54.44061 9.71740 35906 ft 451 kts 321°
2026-05-06 17:07 54.49123 9.65475 35910 ft 450 kts 321°
2026-05-06 17:07 54.54214 9.59155 35912 ft 450 kts 321°
2026-05-06 17:08 54.59277 9.52851 35915 ft 449 kts 321°
2026-05-06 17:08 54.64307 9.46570 35912 ft 449 kts 321°
2026-05-06 17:09 54.69363 9.40236 35922 ft 449 kts 321°
2026-05-06 17:09 54.74444 9.33850 35914 ft 449 kts 320°
2026-05-06 17:10 54.79458 9.27528 35919 ft 448 kts 320°
2026-05-06 17:10 54.84510 9.21264 35920 ft 450 kts 323°
2026-05-06 17:11 54.89981 9.15907 35921 ft 452 kts 330°
2026-05-06 17:11 54.95655 9.11178 35928 ft 452 kts 332°
2026-05-06 17:12 55.01338 9.06603 35929 ft 452 kts 332°
2026-05-06 17:12 55.07024 9.01998 35929 ft 451 kts 332°
2026-05-06 17:13 55.12711 8.97344 35923 ft 451 kts 331°
2026-05-06 17:13 55.18369 8.92673 35924 ft 452 kts 331°
2026-05-06 17:14 55.24084 8.87929 35928 ft 453 kts 331°
2026-05-06 17:14 55.29743 8.83214 35923 ft 452 kts 331°
2026-05-06 17:15 55.35392 8.78490 35916 ft 452 kts 331°
2026-05-06 17:15 55.41065 8.73729 35917 ft 452 kts 331°
2026-05-06 17:16 55.46701 8.68985 35921 ft 450 kts 331°
2026-05-06 17:16 55.52338 8.64225 35926 ft 451 kts 331°
2026-05-06 17:17 55.58006 8.59423 35932 ft 450 kts 331°
2026-05-06 17:17 55.63620 8.54651 35936 ft 451 kts 330°
2026-05-06 17:18 55.69289 8.49816 35941 ft 452 kts 330°
2026-05-06 17:18 55.74926 8.44995 35949 ft 450 kts 330°
2026-05-06 17:19 55.80541 8.40177 35951 ft 451 kts 330°
2026-05-06 17:19 55.86205 8.35299 35951 ft 450 kts 330°
2026-05-06 17:20 55.91786 8.30482 35955 ft 449 kts 329°
2026-05-06 17:20 55.97398 8.25618 35958 ft 449 kts 329°
2026-05-06 17:21 56.03000 8.20746 35962 ft 449 kts 329°
2026-05-06 17:21 56.08623 8.15842 35963 ft 449 kts 329°
2026-05-06 17:22 56.14213 8.10953 35958 ft 449 kts 329°
2026-05-06 17:22 56.19818 8.06033 35964 ft 450 kts 329°
2026-05-06 17:23 56.25406 8.01112 35960 ft 448 kts 329°
2026-05-06 17:23 56.31011 7.96160 35961 ft 449 kts 329°
2026-05-06 17:24 56.36613 7.91196 35962 ft 448 kts 329°
2026-05-06 17:24 56.42184 7.86243 35969 ft 448 kts 329°
2026-05-06 17:25 56.47906 7.81637 35963 ft 452 kts 334°
2026-05-06 17:25 56.53834 7.77781 35969 ft 454 kts 336°
2026-05-06 17:26 56.59769 7.74093 35671 ft 449 kts 336°
2026-05-06 17:26 56.62672 7.72277 35236 ft 447 kts 335°
2026-05-06 17:26 56.65611 7.70422 35055 ft 445 kts 335°
2026-05-06 17:27 56.71505 7.66640 34989 ft 455 kts 335°
2026-05-06 17:27 56.77470 7.62771 34981 ft 455 kts 335°
2026-05-06 17:28 56.83381 7.58920 34986 ft 454 kts 335°
2026-05-06 17:28 56.89308 7.55035 34987 ft 453 kts 335°
2026-05-06 17:29 56.95221 7.51144 34984 ft 454 kts 335°
2026-05-06 17:29 57.01172 7.47212 34981 ft 455 kts 334°
2026-05-06 17:30 57.07117 7.43270 34982 ft 455 kts 334°
2026-05-06 17:30 57.13043 7.39328 34979 ft 455 kts 335°
2026-05-06 17:31 57.19004 7.35352 34976 ft 454 kts 335°
2026-05-06 17:31 57.24921 7.31392 34972 ft 453 kts 334°
2026-05-06 17:32 57.30843 7.27410 34969 ft 453 kts 334°
2026-05-06 17:32 57.36777 7.23572 34963 ft 455 kts 336°
2026-05-06 17:33 57.42806 7.20092 34964 ft 455 kts 337°
2026-05-06 17:33 57.48838 7.16714 34959 ft 455 kts 337°
2026-05-06 17:34 57.54882 7.13315 34949 ft 453 kts 337°
2026-05-06 17:34 57.60915 7.09892 34945 ft 455 kts 337°
2026-05-06 17:35 57.66955 7.06437 34943 ft 455 kts 337°
2026-05-06 17:35 57.72993 7.02965 34943 ft 455 kts 337°
2026-05-06 17:36 57.82007 6.97760 34950 ft 455 kts 336°
2026-05-06 17:36 57.88002 6.94284 34951 ft 453 kts 336°
2026-05-06 17:37 57.94045 6.90764 34951 ft 453 kts 336°
2026-05-06 17:37 58.00037 6.87265 34953 ft 453 kts 336°
2026-05-06 17:38 58.06066 6.83732 34951 ft 451 kts 336°
2026-05-06 17:38 58.12076 6.80198 34946 ft 452 kts 336°
2026-05-06 17:39 58.18058 6.76669 34918 ft 450 kts 336°
2026-05-06 17:39 58.24013 6.73142 34947 ft 450 kts 336°
2026-05-06 17:40 58.29973 6.69599 34927 ft 449 kts 336°
2026-05-06 17:40 58.35884 6.66071 34941 ft 451 kts 336°
2026-05-06 17:41 58.41873 6.62485 34931 ft 449 kts 336°
2026-05-06 17:41 58.47818 6.58916 34939 ft 449 kts 336°
2026-05-06 17:42 58.53764 6.55329 34962 ft 449 kts 336°
2026-05-06 17:42 58.59711 6.51732 34955 ft 446 kts 336°
2026-05-06 17:43 58.65613 6.48147 34913 ft 447 kts 336°
2026-05-06 17:43 58.71508 6.44553 34919 ft 446 kts 336°
2026-05-06 17:44 58.77411 6.40943 34889 ft 444 kts 336°
2026-05-06 17:44 58.83297 6.37332 34906 ft 445 kts 336°
2026-05-06 17:45 58.89143 6.33732 34921 ft 445 kts 336°
2026-05-06 17:45 58.95063 6.30075 34595 ft 445 kts 336°
2026-05-06 17:46 58.97998 6.28259 34290 ft 444 kts 336°
2026-05-06 17:46 59.00923 6.26444 33983 ft 443 kts 335°
2026-05-06 17:46 59.03831 6.24636 33691 ft 441 kts 335°
2026-05-06 17:46 59.06767 6.22807 33380 ft 442 kts 335°
2026-05-06 17:47 59.09677 6.20986 33060 ft 444 kts 335°
2026-05-06 17:47 59.12614 6.19146 32742 ft 445 kts 334°
2026-05-06 17:47 59.15559 6.17298 32441 ft 446 kts 334°
2026-05-06 17:47 59.18481 6.15463 32130 ft 447 kts 334°
2026-05-06 17:48 59.21415 6.13619 31824 ft 447 kts 334°
2026-05-06 17:48 59.24365 6.11762 31500 ft 448 kts 333°
2026-05-06 17:48 59.27320 6.09894 31191 ft 450 kts 333°
2026-05-06 17:48 59.30306 6.08006 30813 ft 449 kts 333°
2026-05-06 17:49 59.33273 6.06130 30430 ft 448 kts 333°
2026-05-06 17:49 59.36211 6.04268 30051 ft 446 kts 333°
2026-05-06 17:49 59.39182 6.02382 29636 ft 445 kts 333°
2026-05-06 17:49 59.42088 6.00533 29238 ft 445 kts 334°
2026-05-06 17:50 59.45009 5.98671 28823 ft 444 kts 334°
2026-05-06 17:50 59.47948 5.96792 28402 ft 445 kts 334°
2026-05-06 17:50 59.50885 5.94909 27952 ft 446 kts 334°
2026-05-06 17:50 59.53858 5.92999 27408 ft 445 kts 334°
2026-05-06 17:51 59.56761 5.91137 26853 ft 442 kts 334°
2026-05-06 17:51 59.59671 5.89265 26293 ft 443 kts 334°
2026-05-06 17:51 59.62638 5.87361 25698 ft 445 kts 335°
2026-05-06 17:51 59.65579 5.85700 25116 ft 444 kts 338°
2026-05-06 17:52 59.68596 5.84471 24527 ft 444 kts 343°
2026-05-06 17:52 59.71637 5.83652 23884 ft 441 kts 346°
2026-05-06 17:52 59.74649 5.83069 23248 ft 437 kts 347°
2026-05-06 17:52 59.77655 5.82590 22580 ft 432 kts 348°
2026-05-06 17:53 59.80631 5.82155 21907 ft 420 kts 348°
2026-05-06 17:53 59.83459 5.81627 21207 ft 405 kts 345°
2026-05-06 17:53 59.86205 5.80841 20521 ft 392 kts 343°
2026-05-06 17:53 59.88835 5.79931 19852 ft 381 kts 342°
2026-05-06 17:54 59.91427 5.78969 19149 ft 372 kts 341°
2026-05-06 17:54 59.93919 5.78024 18471 ft 363 kts 342°
2026-05-06 17:54 59.96381 5.77086 17799 ft 355 kts 342°
2026-05-06 17:54 59.98762 5.76187 17133 ft 349 kts 342°
2026-05-06 17:55 60.01113 5.75309 16464 ft 344 kts 343°
2026-05-06 17:55 60.03444 5.74449 15780 ft 338 kts 343°
2026-05-06 17:55 60.05760 5.73603 15104 ft 333 kts 343°
2026-05-06 17:55 60.07988 5.72792 14451 ft 328 kts 344°
2026-05-06 17:56 60.10146 5.72006 13867 ft 321 kts 344°
2026-05-06 17:56 60.12268 5.71232 13305 ft 315 kts 345°
2026-05-06 17:56 60.14421 5.70473 12752 ft 309 kts 347°
2026-05-06 17:56 60.16413 5.69882 12231 ft 304 kts 348°
2026-05-06 17:57 60.18511 5.69322 11677 ft 299 kts 349°
2026-05-06 17:57 60.20551 5.68778 11128 ft 295 kts 349°
2026-05-06 17:57 60.22564 5.68225 10574 ft 291 kts 350°
2026-05-06 17:57 60.24553 5.67667 10015 ft 287 kts 350°
2026-05-06 17:58 60.26512 5.67115 9452 ft 283 kts 350°
2026-05-06 17:58 60.28451 5.66570 8899 ft 280 kts 351°
2026-05-06 17:58 60.30376 5.66031 8342 ft 278 kts 351°
2026-05-06 17:58 60.32256 5.65501 7829 ft 274 kts 351°
2026-05-06 17:59 60.34108 5.64980 7608 ft 264 kts 350°
2026-05-06 17:59 60.35919 5.64466 7457 ft 263 kts 350°
2026-05-06 17:59 60.37739 5.63910 7319 ft 260 kts 346°
2026-05-06 17:59 60.39270 5.62322 7179 ft 247 kts 314°
2026-05-06 18:00 60.40244 5.59572 7054 ft 236 kts 300°
2026-05-06 18:00 60.41033 5.56745 6899 ft 229 kts 301°
2026-05-06 18:00 60.41883 5.54007 6712 ft 228 kts 303°
2026-05-06 18:00 60.42775 5.51351 6537 ft 228 kts 305°
2026-05-06 18:01 60.43688 5.48719 6356 ft 227 kts 306°
2026-05-06 18:01 60.44590 5.46127 6177 ft 228 kts 305°
2026-05-06 18:01 60.45506 5.43475 5991 ft 227 kts 305°
2026-05-06 18:01 60.46402 5.40873 5807 ft 226 kts 305°
2026-05-06 18:02 60.47300 5.38262 5586 ft 226 kts 305°
2026-05-06 18:02 60.48191 5.35680 5335 ft 226 kts 305°
2026-05-06 18:02 60.49058 5.33175 5090 ft 224 kts 303°
2026-05-06 18:02 60.49925 5.30568 4832 ft 223 kts 302°
2026-05-06 18:03 60.50774 5.27965 4573 ft 223 kts 302°
2026-05-06 18:03 60.51620 5.25290 4308 ft 221 kts 295°
2026-05-06 18:03 60.51952 5.22288 4052 ft 220 kts 271°
2026-05-06 18:03 60.51913 5.19210 3792 ft 218 kts 267°
2026-05-06 18:04 60.51539 5.16318 3529 ft 217 kts 237°
2026-05-06 18:04 60.50373 5.14432 3280 ft 217 kts 206°
2026-05-06 18:04 60.48944 5.13512 3036 ft 217 kts 184°
2026-05-06 18:04 60.47534 5.14311 2995 ft 210 kts 150°
2026-05-06 18:05 60.46272 5.15687 2984 ft 198 kts 162°
2026-05-06 18:05 60.44988 5.16356 2994 ft 181 kts 170°
2026-05-06 18:05 60.43808 5.16838 2930 ft 172 kts 171°
2026-05-06 18:05 60.42634 5.17282 2705 ft 171 kts 171°
2026-05-06 18:06 60.41465 5.17700 2463 ft 170 kts 172°
2026-05-06 18:06 60.40305 5.18103 2220 ft 165 kts 172°
2026-05-06 18:06 60.39179 5.18491 2001 ft 164 kts 172°
2026-05-06 18:06 60.38064 5.18871 1759 ft 164 kts 172°
2026-05-06 18:07 60.36948 5.19250 1527 ft 162 kts 171°
2026-05-06 18:07 60.35863 5.19618 1313 ft 152 kts 171°
2026-05-06 18:07 60.34844 5.19962 1091 ft 147 kts 171°
2026-05-06 18:07 60.33828 5.20305 888 ft 147 kts 171°
2026-05-06 18:08 60.32826 5.20645 687 ft 146 kts 171°
2026-05-06 18:08 60.31826 5.20990 494 ft 146 kts 171°
2026-05-06 18:08 60.30823 5.21316 288 ft 146 kts 170°
2026-05-06 18:08 60.29850 5.21643 158 ft 133 kts 171°
2026-05-06 18:09 60.29148 5.21879 161 ft 69 kts 170°
2026-05-06 18:09 60.28833 5.21989 163 ft 33 kts 168°
2026-05-06 18:09 60.28685 5.22056 162 ft 9 kts 143°
2026-05-06 18:09 60.28665 5.22159 163 ft 7 kts 91°
2026-05-06 18:10 60.28668 5.22220 164 ft 4 kts 83°
2026-05-06 18:10 60.28670 5.22263 165 ft 0 kts 82°
2026-05-06 18:10 60.28672 5.22285 165 ft 5 kts 81°
2026-05-06 18:11 60.28680 5.22390 166 ft 8 kts 79°
2026-05-06 18:11 60.28696 5.22461 167 ft 12 kts 41°
2026-05-06 18:11 60.28790 5.22443 167 ft 6 kts 351°
2026-05-06 18:11 60.28824 5.22461 167 ft 5 kts 53°
2026-05-06 18:12 60.28840 5.22511 167 ft 3 kts 59°
2026-05-06 18:12 60.28855 5.22562 168 ft 4 kts 59°
2026-05-06 18:12 60.28855 5.22563 168 ft 0 kts 59°